Battle Creek, Michigan, United States (49014)
Lat: 42.32N, Lon: 85.18W
Wx Zone: MIZ073
Local Info
Past Weather Observations for Today

NOTE: This archive is for the closest National Weather Service station to Battle Creek. Information may differ from the station used for current weather conditions.

Click here for Long-term Archive

Time Weather Temperature Dewpoint Humidity Pressure Winds Precip Visibility
20:53
Clear
75°F / 24°C 70°F / 21°C 83% 30.04 in
(1017 mb)
Calm - 10SM
19:53
Clear
79°F / 26°C 70°F / 21°C 74% 30.01 in
(1016 mb)
Calm - 10SM
18:53
Clear
81°F / 27°C 70°F / 21°C 70% 30.01 in
(1016 mb)
SSW 3.5 mph
(SSW 6 kph)
- 10SM
17:53
Clear
84°F / 29°C 72°F / 22°C 66% 30.01 in
(1016 mb)
W 5.8 mph
(W 9 kph)
- 10SM
16:53
Clear
88°F / 31°C 70°F / 21°C 55% 30.01 in
(1016 mb)
WNW 10.4 mph
(WNW 17 kph)
- 10SM
15:53
Partly Cloudy
88°F / 31°C 70°F / 21°C 55% 30.01 in
(1016 mb)
WNW 11.5 mph
(WNW 19 kph)
- 10SM
14:53
Clear
90°F / 32°C 70°F / 21°C 52% 30.04 in
(1017 mb)
W 13.8 mph
(W 22 kph)
- 10SM
13:53
Partly Cloudy
88°F / 31°C 70°F / 21°C 55% 30.04 in
(1017 mb)
NW 9.2 mph
(NW 15 kph)
- 10SM
12:53
Partly Cloudy
88°F / 31°C 70°F / 21°C 55% 30.04 in
(1017 mb)
WNW 12.7 mph
(WNW 20 kph)
- 10SM
11:53
Clear
88°F / 31°C 72°F / 22°C 59% 30.06 in
(1018 mb)
W 12.7 mph
(W 20 kph)
- 10SM
10:53
Clear
84°F / 29°C 72°F / 22°C 66% 30.06 in
(1018 mb)
W 11.5 mph
(W 19 kph)
- 10SM
09:53
Partly Cloudy
82°F / 28°C 72°F / 22°C 70% 30.06 in
(1018 mb)
SSW 8.1 mph
(SSW 13 kph)
- 10SM
09:31
Partly Cloudy
81°F / 27°C 72°F / 22°C 74% 30.09 in
(1019 mb)
SSW 9.2 mph
(SSW 15 kph)
- 10SM
08:53
Clear
79°F / 26°C 70°F / 21°C 74% 30.06 in
(1018 mb)
SSW 8.1 mph
(SSW 13 kph)
- 10SM
07:53
Clear
73°F / 23°C 70°F / 21°C 89% 30.06 in
(1018 mb)
SW 8.1 mph
(SW 13 kph)
- 8SM
06:53
Partly Cloudy
Fog And Mist
72°F / 22°C 68°F / 20°C 88% 30.06 in
(1018 mb)
SW 6.9 mph
(SW 11 kph)
- 6SM
05:53
Clear
72°F / 22°C 68°F / 20°C 88% 30.06 in
(1018 mb)
SW 6.9 mph
(SW 11 kph)
- 7SM
04:53
Clear
Fog And Mist
70°F / 21°C 68°F / 20°C 94% 30.06 in
(1018 mb)
SW 4.6 mph
(SW 7 kph)
- 6SM
03:53
Partly Cloudy
72°F / 22°C 68°F / 20°C 88% 30.06 in
(1018 mb)
SSE 3.5 mph
(SSE 6 kph)
- 8SM
02:53
Partly Cloudy
73°F / 23°C 70°F / 21°C 89% 30.06 in
(1018 mb)
SSE 3.5 mph
(SSE 6 kph)
- 10SM
01:53
Clear
72°F / 22°C 70°F / 21°C 94% 30.06 in
(1018 mb)
SW 4.6 mph
(SW 7 kph)
- 9SM
00:53
Clear
73°F / 23°C 70°F / 21°C 89% 30.09 in
(1019 mb)
SW 5.8 mph
(SW 9 kph)
- 10SM
Time Weather Temperature Dewpoint Humidity Pressure Winds Precip Visibility


Weather for websites

WeatherForYou.com, LLC is not responsible for any damages or problems caused by this service. Current weather conditions are obtained from the closest station including government and personal stations which may have varying degrees of accuracy. Weather forecasts are derived from the NOAA NDFD. Like all things, this site belongs to Jesus Christ... He just trusts us to maintain it. If you have any questions or comments email webmaster@weatherforyou.com

Copyright © 2015, WeatherForYou.com LLC. All rights reserved.